Weather History for KAUO - February, 2013

Change the Weather History Date:

Sunday, February 10, 2013

  Actual Average Record
Temperature  
Mean Temperature 55 °F -  
Max Temperature 64 °F - 78 °F (1965)
Min Temperature 46 °F - 9 °F (1971)
Degree Days  
Heating Degree Days 10    
Month to date heating degree days 154  
Since 1 July heating degree days 1185  
Growing Degree Days 5 (Base 50)    
Moisture  
Dew Point 42 °F    
Average Humidity 63    
Maximum Humidity 94    
Minimum Humidity 40    
Precipitation  
Precipitation 1.23 in - 1.77 in (2001)
Month to date precipitation 2.03  
Year to date precipitation 4.95  
Sea Level Pressure  
Sea Level Pressure 30.12 in    
Wind  
Wind Speed 11 mph (ESE)    
Max Wind Speed 18 mph    
Max Gust Speed 25 mph    
Visibility 10 miles    
Events Thunderstorm    
T = Trace of Precipitation, MM = Missing Value Source: NWS Daily Summary

Daily Weather History Graph

Daily Weather History Graph

Search for Another Location

Airport or City:

Trip Planner

Search our weather history database for the weather conditions in past years. The results will help you decide how hot, cold, wet, or windy it might be!

Date:

Astronomy

Feb. 10, 2013 Rise Set
Actual Time 6:29 AM CST 5:23 PM CST
Civil Twilight 6:03 AM CST 5:48 PM CST
Nautical Twilight 5:34 AM CST 6:17 PM CST
Astronomical Twilight 5:05 AM CST 6:46 PM CST
Moon 6:22 AM CST (2/10) 6:07 PM CST (2/10)
Length of Visible Light 11h 44m
Length of Day
10h 54m
New Moon, 0% of the Moon is Illuminated
Feb 10
New Moon
Feb 17
First Quarter
Feb 25
Full
Mar 4
Last Quarter
Mar 11
New

Hourly Weather History & Observations

Time (CST) Temp. Windchill Dew Point Humidity Pressure Visibility Wind Dir Wind Speed Gust Speed Precip Events Conditions
12:15 AM 50.0 °F - 32.0 °F 50% 30.20 in 10.0 mi ESE 9.2 mph - N/A   Clear
12:35 AM 50.0 °F - 30.2 °F 47% 30.20 in 10.0 mi ESE 9.2 mph - N/A   Clear
12:55 AM 50.0 °F - 30.2 °F 47% 30.20 in 10.0 mi ESE 10.4 mph - N/A   Clear
1:15 AM 48.2 °F - 30.2 °F 50% 30.20 in 10.0 mi ESE 8.1 mph - N/A   Clear
1:35 AM 48.2 °F - 30.2 °F 50% 30.19 in 10.0 mi ESE 6.9 mph - N/A   Clear
1:55 AM 48.2 °F - 30.2 °F 50% 30.19 in 10.0 mi ESE 8.1 mph - N/A   Clear
2:15 AM 48.2 °F - 30.2 °F 50% 30.19 in 10.0 mi ESE 8.1 mph - N/A   Clear
2:35 AM 48.2 °F - 28.4 °F 46% 30.19 in 10.0 mi ESE 8.1 mph - N/A   Clear
2:55 AM 46.4 °F 43.5 °F 28.4 °F 50% 30.19 in 10.0 mi ESE 5.8 mph - N/A   Clear
3:15 AM 46.4 °F 43.5 °F 28.4 °F 50% 30.20 in 10.0 mi SE 5.8 mph - N/A   Clear
3:55 AM 46.4 °F 42.9 °F 26.6 °F 46% 30.20 in 10.0 mi ESE 6.9 mph - N/A   Clear
4:15 AM 46.4 °F 42.4 °F 26.6 °F 46% 30.20 in 10.0 mi ESE 8.1 mph - N/A   Clear
4:35 AM 46.4 °F 42.9 °F 24.8 °F 43% 30.20 in 10.0 mi ESE 6.9 mph - N/A   Clear
4:55 AM 46.4 °F 42.4 °F 24.8 °F 43% 30.19 in 10.0 mi ESE 8.1 mph - N/A   Clear
5:15 AM 46.4 °F 41.9 °F 23.0 °F 40% 30.19 in 10.0 mi ESE 9.2 mph - N/A   Clear
5:35 AM 46.4 °F 42.4 °F 24.8 °F 43% 30.20 in 10.0 mi ESE 8.1 mph - N/A   Clear
5:55 AM 46.4 °F 42.4 °F 24.8 °F 43% 30.20 in 10.0 mi ESE 8.1 mph - N/A   Clear
6:15 AM 46.4 °F 41.9 °F 26.6 °F 46% 30.19 in 10.0 mi ESE 9.2 mph - N/A   Clear
6:35 AM 46.4 °F 41.5 °F 26.6 °F 46% 30.19 in 10.0 mi ESE 10.4 mph 17.3 mph N/A   Clear
6:55 AM 46.4 °F 41.5 °F 26.6 °F 46% 30.18 in 10.0 mi ESE 10.4 mph - N/A   Clear
7:15 AM 48.2 °F - 26.6 °F 43% 30.20 in 10.0 mi ESE 10.4 mph 17.3 mph N/A   Clear
7:35 AM 48.2 °F - 28.4 °F 46% 30.20 in 10.0 mi ESE 11.5 mph 17.3 mph N/A   Partly Cloudy
7:55 AM 50.0 °F - 30.2 °F 47% 30.21 in 10.0 mi ESE 10.4 mph 17.3 mph N/A   Mostly Cloudy
8:15 AM 51.8 °F - 32.0 °F 47% 30.21 in 10.0 mi ESE 9.2 mph 18.4 mph N/A   Scattered Clouds
8:35 AM 53.6 °F - 33.8 °F 47% 30.20 in 10.0 mi ESE 13.8 mph 19.6 mph N/A   Scattered Clouds
8:55 AM 53.6 °F - 37.4 °F 54% 30.19 in 10.0 mi SE 17.3 mph 24.2 mph N/A   Mostly Cloudy
9:15 AM 55.4 °F - 37.4 °F 51% 30.19 in 10.0 mi SE 10.4 mph 21.9 mph N/A   Mostly Cloudy
9:35 AM 55.4 °F - 39.2 °F 54% 30.19 in 10.0 mi SE 12.7 mph 20.7 mph N/A   Mostly Cloudy
9:55 AM 57.2 °F - 41.0 °F 55% 30.17 in 10.0 mi SE 17.3 mph 25.3 mph N/A   Overcast
10:15 AM 57.2 °F - 42.8 °F 59% 30.17 in 10.0 mi SE 13.8 mph 26.5 mph N/A   Mostly Cloudy
10:35 AM 59.0 °F - 42.8 °F 55% 30.18 in 10.0 mi SE 19.6 mph 29.9 mph N/A   Mostly Cloudy
10:55 AM 59.0 °F - 44.6 °F 59% 30.17 in 10.0 mi SE 17.3 mph 23.0 mph N/A   Overcast
11:15 AM 60.8 °F - 44.6 °F 55% 30.15 in 10.0 mi SE 16.1 mph 26.5 mph N/A   Overcast
11:35 AM 60.8 °F - 46.4 °F 59% 30.14 in 10.0 mi SE 15.0 mph 26.5 mph N/A   Overcast
11:55 AM 60.8 °F - 46.4 °F 59% 30.12 in 10.0 mi SSE 18.4 mph 24.2 mph N/A   Overcast
12:15 PM 60.8 °F - 46.4 °F 59% 30.10 in 10.0 mi SE 16.1 mph 26.5 mph N/A   Overcast
12:35 PM 60.8 °F - 46.4 °F 59% 30.10 in 10.0 mi SE 12.7 mph 21.9 mph N/A   Overcast
12:55 PM 60.8 °F - 48.2 °F 63% 30.08 in 10.0 mi SE 10.4 mph 21.9 mph N/A   Overcast
1:15 PM 62.6 °F - 48.2 °F 59% 30.06 in 10.0 mi SE 13.8 mph 20.7 mph N/A   Overcast
1:35 PM 62.6 °F - 48.2 °F 59% 30.06 in 10.0 mi SSE 15.0 mph 20.7 mph N/A Thunderstorm Thunderstorm
1:55 PM 64.4 °F - 48.2 °F 56% 30.05 in 10.0 mi SSE 19.6 mph 26.5 mph N/A   Overcast
2:15 PM 64.4 °F - 50.0 °F 59% 30.04 in 10.0 mi SSE 16.1 mph 28.8 mph N/A   Overcast
2:35 PM 64.4 °F - 50.0 °F 59% 30.03 in 10.0 mi SE 15.0 mph 24.2 mph N/A   Overcast
2:55 PM 62.6 °F - 53.6 °F 72% 30.02 in 10.0 mi SSE 13.8 mph 20.7 mph N/A   Overcast
3:15 PM 62.6 °F - 53.6 °F 72% 30.01 in 10.0 mi SSE 17.3 mph 24.2 mph N/A   Overcast
3:35 PM 64.4 °F - 51.8 °F 64% 30.01 in 10.0 mi SSE 13.8 mph 20.7 mph N/A   Overcast
3:55 PM 64.4 °F - 51.8 °F 64% 29.99 in 10.0 mi SSE 12.7 mph 21.9 mph N/A Thunderstorm Mostly Cloudy
4:15 PM 64.4 °F - 53.6 °F 68% 29.99 in 10.0 mi SSE 15.0 mph 21.9 mph N/A Thunderstorm Mostly Cloudy
4:35 PM 64.4 °F - 53.6 °F 68% 29.98 in 10.0 mi SSE 13.8 mph 20.7 mph N/A Thunderstorm Overcast
4:55 PM 62.6 °F - 53.6 °F 72% 29.99 in 10.0 mi SSE 13.8 mph 23.0 mph 0.01 in Thunderstorm Overcast
5:15 PM 62.6 °F - 55.4 °F 77% 29.99 in 10.0 mi SSE 11.5 mph - 0.06 in Thunderstorm Thunderstorm
5:35 PM 62.6 °F - 55.4 °F 77% 30.03 in 9.0 mi WNW 11.5 mph 18.4 mph 0.10 in   Overcast
5:55 PM 57.2 °F - 53.6 °F 88% 30.08 in 4.0 mi East 8.1 mph 23.0 mph 0.48 in   Overcast
6:15 PM 57.2 °F - 53.6 °F 88% 30.08 in 9.0 mi North 8.1 mph - 0.20 in   Overcast
6:35 PM 57.2 °F - 53.6 °F 88% 30.09 in 10.0 mi North 9.2 mph - 0.27 in Thunderstorm Thunderstorm
6:55 PM 57.2 °F - 53.6 °F 88% 30.08 in 10.0 mi NNE 10.4 mph - 0.35 in Thunderstorm Overcast
7:15 PM 55.4 °F - 53.6 °F 94% 30.07 in 10.0 mi North 15.0 mph - 0.10 in Thunderstorm Overcast
7:35 PM 55.4 °F - 51.8 °F 88% 30.09 in 10.0 mi NNE 10.4 mph - 0.18 in   Mostly Cloudy
7:55 PM 55.4 °F - 51.8 °F 88% 30.11 in 10.0 mi North 10.4 mph 17.3 mph 0.28 in   Mostly Cloudy
8:15 PM 55.4 °F - 51.8 °F 88% 30.12 in 10.0 mi NNE 11.5 mph - 0.13 in   Overcast
8:35 PM 55.4 °F - 51.8 °F 88% 30.08 in 10.0 mi ENE 13.8 mph 20.7 mph 0.20 in   Overcast
8:55 PM 55.4 °F - 51.8 °F 88% 30.05 in 10.0 mi ENE 18.4 mph 23.0 mph 0.22 in   Overcast
9:15 PM 55.4 °F - 51.8 °F 88% 30.06 in 10.0 mi ENE 12.7 mph - N/A   Overcast
9:35 PM 55.4 °F - 51.8 °F 88% 30.06 in 10.0 mi ENE 11.5 mph 17.3 mph N/A Thunderstorm Overcast
9:55 PM 55.4 °F - 51.8 °F 88% 30.06 in 10.0 mi East 10.4 mph - 0.01 in   Mostly Cloudy
10:15 PM 55.4 °F - 51.8 °F 88% 30.05 in 10.0 mi ENE 10.4 mph - 0.01 in   Overcast
10:35 PM 55.4 °F - 51.8 °F 88% 30.08 in 10.0 mi ESE 3.5 mph - 0.02 in   Overcast
10:55 PM 55.4 °F - 51.8 °F 88% 30.08 in 10.0 mi East 6.9 mph - 0.04 in   Overcast
11:35 PM 55.4 °F - 51.8 °F 88% 30.06 in 10.0 mi East 12.7 mph - 0.13 in   Mostly Cloudy
11:55 PM 55.4 °F - 51.8 °F 88% 30.06 in 10.0 mi East 6.9 mph - 0.19 in   Overcast